Location: Quaker Farms
(41.4276°N, 73.1557°W)
Time: 20:02:10
(UTC+00:00)

S-56A Canister/Altair - Pass Details

Date: 22 June 2021
Orbit: 631 x 2501 km, 38.9° (Epoch: 30 July)

Event Time Altitude Azimuth Distance (km) Brightness Sun altitude
Rises 11:20:24 0° 270° (W) 2,916 9.9 19.9°
Reaches altitude 10° 11:22:34 10° 267° (W) 2,040 9.2 20.3°
Maximum altitude 11:27:03 63° 186° (S) 805 7.9 21.1°
Drops below altitude 10° 11:32:45 10° 106° (ESE) 2,585 11.5 22.1°
Sets 11:35:48 0° 104° (ESE) 3,781 12.2 22.7°
